User: anonymous   Login
Location: Edinburgh
(55.9500°N, 3.1600°W)
Time: 19:02:59
(UTC+01:00)
Language:

AO-91 - Orbit

View from above orbital plane
View from above orbital plane
View from above satellite
View from above satellite

Ground track
Ground track

The orbit data is extracted from the following two-line orbital elements,

1 43017U 17073E   24147.21018521  .00012550  00000-0  77871-3 0  9997
2 43017  97.5808  23.4777 0211884   7.7648 352.6766 14.93023687352389
Epoch (UTC): 26 May 2024 05:02:40
Eccentricity: 0.0211884
inclination: 97.5808°
perigee height: 441 km
apogee height: 736 km
right ascension of ascending node: 23.4777°
argument of perigee: 7.7648°
revolutions per day: 14.93023687
mean anomaly at epoch: 352.6766°
orbit number at epoch: 35238

The dashed part of the orbit path shows where the satellite is in the earth's shadow,  

DLR